Date String (YYYY-MM-DD hh:mm:ss) UTC,Instrument flags,absolute air pressure of the measurement (hPa),sample flow rate (lpm),inlet stack bypass flow (lpm),air temperature of the measurement (°C),ambient temperature measured by the external sensor (°C),aerosol sample conditioner tube jacket temperature (°C),OPC LED temperature (°C),internal box temperature (°C),relative humidity of the measurement (%),span deviation,mass concentration of particles derived from Lorenz-Mie calculation of OPC scattering (μg/m³),mass concentration of particles derived from Lorenz-Mie calculation of OPC scattering (μg/m³),mass concentration of particles derived from Lorenz-Mie calculation of OPC scattering (μg/m³)
DateTimeUTC,F1_M11,P_M11,Q1_M11,Q2_M11,T1_M11,T2_M11,T3_M11,T4_M11,T5_M11,U1_M11,ZSPAN_M11,X0_M11,X2_M11,X1_M11
2023-07-26 05:00:00,SystemResetWarning,0834.8,5.01,000.00,028.8,027.2,000.0,037.1,030.5,24.4,0000.0,0010.67,0004.01,0002.93
2023-07-26 05:01:00,SystemResetWarning,0834.6,5.01,000.00,028.8,027.5,000.0,037.2,030.5,24.2,0000.0,0010.77,0004.04,0002.94
2023-07-26 05:02:00,SystemResetWarning,0834.6,4.99,000.00,028.9,027.7,000.0,037.2,030.6,24.0,0000.0,0011.30,0004.07,0002.94
2023-07-26 05:03:00,SystemResetWarning,0834.6,4.99,000.00,028.9,027.9,000.0,037.2,030.7,23.9,0000.0,0011.37,0004.06,0002.94
2023-07-26 05:04:00,SystemResetWarning,0834.6,5.01,000.00,029.0,027.9,000.0,037.2,030.7,23.6,0000.0,0010.91,0004.03,0002.95
2023-07-26 05:05:00,SystemResetWarning,0834.5,4.99,000.00,029.0,026.4,000.0,037.1,030.6,23.6,0000.0,0011.01,0004.03,0002.94
2023-07-26 05:06:00,SystemResetWarning,0835.1,5.01,000.00,028.9,025.5,000.0,037.1,030.4,23.9,0000.0,0011.18,0004.04,0002.93
2023-07-26 05:07:00,SystemResetWarning,0835.1,5.02,000.00,028.8,025.6,000.0,037.1,030.2,24.1,0000.0,0011.24,0004.04,0002.92
2023-07-26 05:08:00,SystemResetWarning,0835.1,5.00,000.00,028.8,025.9,000.0,037.1,030.2,24.2,0000.0,0011.40,0004.07,0002.94
2023-07-26 05:09:00,SystemResetWarning,0834.8,5.00,000.00,028.8,026.3,000.0,037.1,030.3,24.1,0000.0,0010.34,0004.10,0002.95
2023-07-26 05:10:00,SystemResetWarning,0834.6,5.00,000.00,028.8,026.7,000.0,037.2,030.4,23.9,0000.0,0010.05,0004.07,0002.95
2023-07-26 05:11:00,SystemResetWarning,0834.8,5.00,000.00,028.8,027.0,000.0,037.2,030.5,23.9,0000.0,0009.95,0004.06,0002.96
2023-07-26 05:12:00,SystemResetWarning,0834.6,4.99,000.00,028.9,027.3,000.0,037.2,030.6,23.8,0000.0,0009.83,0004.06,0002.99
2023-07-26 05:13:00,SystemResetWarning,0834.6,4.99,000.00,028.9,027.5,000.0,037.3,030.6,23.8,0000.0,0009.26,0004.05,0003.00
2023-07-26 05:14:00,SystemResetWarning,0834.5,5.00,000.00,029.0,027.7,000.0,037.3,030.7,23.7,0000.0,0009.30,0004.08,0003.01
2023-07-26 05:15:00,SystemResetWarning,0834.7,4.99,000.00,029.0,026.5,000.0,037.2,030.6,23.6,0000.0,0009.31,0004.07,0003.01
2023-07-26 05:16:00,SystemResetWarning,0835.1,5.01,000.00,028.9,025.4,000.0,037.1,030.4,23.5,0000.0,0009.11,0004.04,0003.02
2023-07-26 05:17:00,SystemResetWarning,0834.7,5.01,000.00,028.9,025.5,000.0,037.1,030.3,23.7,0000.0,0008.98,0004.03,0003.05
2023-07-26 05:18:00,SystemResetWarning,0834.5,5.00,000.00,028.8,025.8,000.0,037.1,030.2,23.8,0000.0,0008.89,0004.03,0003.06
2023-07-26 05:19:00,SystemResetWarning,0834.5,5.00,000.00,028.8,026.2,000.0,037.2,030.3,24.0,0000.0,0008.70,0004.00,0003.06
2023-07-26 05:20:00,SystemResetWarning,0834.5,5.00,000.00,028.8,026.6,000.0,037.2,030.4,24.0,0000.0,0008.68,0003.95,0003.05
2023-07-26 05:21:00,SystemResetWarning,0834.5,5.00,000.00,028.8,026.9,000.0,037.2,030.5,24.0,0000.0,0008.82,0003.95,0003.05
2023-07-26 05:22:00,SystemResetWarning,0834.5,4.98,000.00,028.9,027.2,000.0,037.2,030.6,24.0,0000.0,0009.01,0003.95,0003.06
2023-07-26 05:23:00,SystemResetWarning,0834.5,5.00,000.00,028.9,027.5,000.0,037.3,030.6,24.0,0000.0,0009.07,0003.96,0003.05
2023-07-26 05:24:00,SystemResetWarning,0834.5,5.00,000.00,029.0,027.7,000.0,037.3,030.7,24.1,0000.0,0008.98,0003.92,0003.04
2023-07-26 05:25:00,SystemResetWarning,0834.5,5.00,000.00,029.0,027.5,000.0,037.3,030.7,23.6,0000.0,0008.85,0003.89,0003.03
2023-07-26 05:26:00,SystemResetWarning,0834.5,4.99,000.00,029.0,026.0,000.0,037.2,030.6,23.8,0000.0,0008.48,0003.87,0003.05
2023-07-26 05:27:00,SystemResetWarning,0834.5,5.00,000.00,028.9,025.4,000.0,037.1,030.4,24.4,0000.0,0008.57,0003.88,0003.03
2023-07-26 05:28:00,SystemResetWarning,0834.5,5.00,000.00,028.9,025.6,000.0,037.1,030.3,25.2,0000.0,0008.55,0003.88,0003.02
2023-07-26 05:29:00,SystemResetWarning,0834.5,5.01,000.00,028.8,026.0,000.0,037.2,030.3,25.4,0000.0,0008.74,0003.91,0003.03
2023-07-26 05:30:00,SystemResetWarning,0834.5,4.99,000.00,028.8,026.4,000.0,037.2,030.4,25.3,0000.0,0008.76,0003.93,0003.02
2023-07-26 05:31:00,SystemResetWarning,0834.4,5.00,000.00,028.9,026.7,000.0,037.2,030.4,25.4,0000.0,0009.44,0003.97,0003.02
2023-07-26 05:32:00,SystemResetWarning,0834.5,5.00,000.00,028.9,027.0,000.0,037.3,030.5,25.2,0000.0,0009.17,0003.95,0003.01
2023-07-26 05:33:00,SystemResetWarning,0834.5,5.01,000.00,028.9,027.3,000.0,037.3,030.6,25.2,0000.0,0009.23,0003.96,0003.01
2023-07-26 05:34:00,SystemResetWarning,0834.5,4.99,000.00,029.0,027.5,000.0,037.3,030.7,25.2,0000.0,0009.98,0003.94,0003.02
2023-07-26 05:35:00,SystemResetWarning,0834.6,4.99,000.00,029.0,027.7,000.0,037.3,030.7,24.9,0000.0,0010.08,0003.98,0003.02
2023-07-26 05:36:00,SystemResetWarning,0834.5,5.00,000.00,029.1,027.8,000.0,037.4,030.8,24.7,0000.0,0009.94,0003.95,0003.04
2023-07-26 05:37:00,SystemResetWarning,0834.5,5.00,000.00,029.0,026.4,000.0,037.3,030.7,24.4,0000.0,0009.89,0003.97,0003.03
2023-07-26 05:38:00,SystemResetWarning,0834.5,5.00,000.00,029.0,025.5,000.0,037.2,030.5,24.4,0000.0,0009.72,0003.98,0003.05
2023-07-26 05:39:00,SystemResetWarning,0834.5,5.01,000.00,028.9,025.6,000.0,037.2,030.3,24.8,0000.0,0009.85,0003.97,0003.05
2023-07-26 05:40:00,SystemResetWarning,0834.5,5.01,000.00,028.9,025.9,000.0,037.2,030.3,24.5,0000.0,0009.84,0003.93,0003.05
2023-07-26 05:41:00,SystemResetWarning,0834.5,4.99,000.00,028.9,026.3,000.0,037.3,030.4,24.8,0000.0,0009.98,0003.92,0003.05
2023-07-26 05:42:00,SystemResetWarning,0834.5,5.00,000.00,028.9,026.7,000.0,037.3,030.5,24.9,0000.0,0009.38,0003.88,0003.06
2023-07-26 05:43:00,SystemResetWarning,0834.6,5.00,000.00,028.9,027.0,000.0,037.3,030.5,24.5,0000.0,0009.27,0003.88,0003.07
2023-07-26 05:44:00,SystemResetWarning,0834.5,5.00,000.00,029.0,027.3,000.0,037.3,030.6,23.9,0000.0,0009.23,0003.88,0003.07
2023-07-26 05:45:00,SystemResetWarning,0835.0,4.99,000.00,029.0,027.5,000.0,037.4,030.7,24.0,0000.0,0008.68,0003.91,0003.08
2023-07-26 05:46:00,SystemResetWarning,0835.1,4.98,000.00,029.0,027.7,000.0,037.4,030.8,24.2,0000.0,0008.32,0003.85,0003.09
2023-07-26 05:47:00,SystemResetWarning,0834.9,5.00,000.00,029.1,027.4,000.0,037.3,030.8,25.0,0000.0,0008.76,0003.89,0003.10
2023-07-26 05:48:00,SystemResetWarning,0834.5,5.00,000.00,029.0,025.9,000.0,037.3,030.4,25.5,0000.0,0009.09,0003.87,0003.10
2023-07-26 05:49:00,SystemResetWarning,0834.5,5.00,000.00,028.9,025.5,000.0,037.2,030.3,25.7,0000.0,0009.52,0003.87,0003.11
2023-07-26 05:50:00,SystemResetWarning,0834.5,5.01,000.00,028.9,025.7,000.0,037.2,030.2,25.6,0000.0,0009.51,0003.85,0003.12
2023-07-26 05:51:00,SystemResetWarning,0834.5,5.00,000.00,028.8,026.0,000.0,037.3,030.3,26.1,0000.0,0010.33,0003.87,0003.13
2023-07-26 05:52:00,SystemResetWarning,0834.5,5.00,000.00,028.8,026.4,000.0,037.3,030.4,25.3,0000.0,0010.00,0003.87,0003.13
2023-07-26 05:53:00,SystemResetWarning,0834.5,5.00,000.00,028.9,026.8,000.0,037.3,030.4,24.5,0000.0,0009.91,0003.86,0003.14
2023-07-26 05:54:00,SystemResetWarning,0834.6,5.00,000.00,028.9,027.1,000.0,037.3,030.5,24.1,0000.0,0010.45,0003.87,0003.14
2023-07-26 05:55:00,SystemResetWarning,0834.6,5.01,000.00,028.9,027.4,000.0,037.3,030.6,24.0,0000.0,0010.89,0003.86,0003.14
2023-07-26 05:56:00,SystemResetWarning,0835.0,4.99,000.00,029.0,027.6,000.0,037.3,030.7,23.8,0000.0,0011.61,0003.82,0003.14
2023-07-26 05:57:00,SystemResetWarning,0835.1,5.00,000.00,029.0,027.8,000.0,037.4,030.7,23.7,0000.0,0011.60,0003.84,0003.14
2023-07-26 05:58:00,SystemResetWarning,0835.1,4.99,000.00,029.0,026.9,000.0,037.3,030.7,23.5,0000.0,0011.28,0003.88,0003.15
2023-07-26 05:59:00,SystemResetWarning,0834.9,5.01,000.00,029.0,025.6,000.0,037.2,030.5,23.5,0000.0,0011.00,0003.90,0003.15
